WO5CID Weather Reports


time (UTC)temp
F
wind
direction
speed
knots
gust
knots
rain 1hr
in
rain 24hr
in
rain mn
in
humidity
%
barometer
mb
20260505051811 58 187 0.0 0.0 0.00 0.00 0.00 90 1016.1
20260505051309 58 187 0.0 0.0 0.00 0.00 0.00 90 1016.2
20260505050807 58 187 0.0 0.0 0.00 0.00 0.00 90 1016.5
20260505050305 58 187 0.0 0.0 0.00 0.00 0.00 90 1016.5
20260505041735 59 187 0.0 0.0 0.00 0.00 0.00 89 1017.0
20260505041232 59 187 0.0 0.0 0.00 0.00 0.00 89 1016.8
20260505040729 60 187 0.0 0.0 0.00 0.00 0.00 87 1016.7
20260505040227 60 187 0.0 0.0 0.00 0.00 0.00 86 1016.6
20260505035723 60 187 0.0 0.0 0.00 0.00 0.00 86 1016.6
20260505035219 60 187 0.0 0.0 0.00 0.00 0.00 86 1016.7
20260505034716 60 187 0.0 0.0 0.00 0.00 0.00 83 1016.6
20260505034213 61 187 0.0 0.0 0.00 0.00 0.00 82 1016.6
20260505033709 61 187 0.0 0.0 0.00 0.00 0.00 82 1016.6
20260505033208 61 187 0.0 0.0 0.00 0.00 0.00 81 1016.6
20260505032705 61 187 0.0 0.0 0.00 0.00 0.00 81 1016.5
20260505032201 61 187 0.0 0.0 0.00 0.00 0.00 80 1016.5
20260505031659 61 187 0.0 0.0 0.00 0.00 0.00 81 1016.8
20260505031155 62 187 0.0 0.0 0.00 0.00 0.00 81 1016.9
20260505030652 62 187 0.0 0.0 0.00 0.00 0.00 80 1016.8
20260505030147 62 187 0.0 0.0 0.00 0.00 0.00 79 1016.8
20260505025644 62 187 0.0 0.0 0.00 0.00 0.00 78 1016.6
20260505025142 63 187 0.0 0.0 0.00 0.00 0.00 78 1016.6
20260505024639 63 187 0.0 0.0 0.00 0.00 0.00 77 1016.7
20260505024136 63 187 0.0 0.0 0.00 0.00 0.00 76 1016.8
20260505023634 63 187 0.0 0.0 0.00 0.00 0.00 76 1016.6
20260505023131 64 187 0.0 0.0 0.00 0.00 0.00 76 1016.6
20260505022629 64 187 0.0 0.0 0.00 0.00 0.00 74 1016.8
20260505022126 64 187 0.0 0.0 0.00 0.00 0.00 74 1016.7
20260505021622 64 187 0.9 0.9 0.00 0.00 0.00 73 1016.6
20260505021119 64 187 0.0 0.0 0.00 0.00 0.00 72 1016.6
20260505020614 64 176 0.0 0.0 0.00 0.00 0.00 72 1016.7
20260505020111 64 176 0.0 0.0 0.00 0.00 0.00 72 1016.6
20260505015608 65 176 0.0 0.0 0.00 0.00 0.00 71 1016.8
20260505015105 65 176 0.0 0.0 0.00 0.00 0.00 70 1016.4
20260505014601 65 176 0.0 0.0 0.00 0.00 0.00 70 1016.7
20260505014058 66 176 0.0 0.0 0.00 0.00 0.00 70 1016.6
20260505013556 66 196 0.0 0.0 0.00 0.00 0.00 69 1016.6
20260505013053 66 192 0.0 0.0 0.00 0.00 0.00 70 1016.4
20260505012551 66 192 0.0 0.0 0.00 0.00 0.00 68 1016.3
20260505012048 66 205 0.0 0.9 0.00 0.00 0.00 68 1016.4
20260505011543 66 158 0.0 0.0 0.00 0.00 0.00 68 1016.3
20260505011041 67 158 0.0 0.0 0.00 0.00 0.00 67 1016.3
20260505010536 67 158 0.0 0.0 0.00 0.00 0.00 67 1016.3
20260505010033 67 180 0.0 0.0 0.00 0.00 0.00 66 1016.0
20260505005529 67 180 0.0 0.0 0.00 0.00 0.00 66 1016.1
20260505005027 68 170 0.0 0.0 0.00 0.00 0.00 65 1016.0
20260505004524 68 170 0.0 0.0 0.00 0.00 0.00 65 1016.0
20260505004020 68 169 0.0 0.0 0.00 0.00 0.00 64 1016.1
20260505003517 69 176 0.0 0.0 0.00 0.00 0.00 63 1015.9
20260505003015 69 171 0.9 0.9 0.00 0.00 0.00 62 1016.0
20260505002510 69 153 0.9 0.9 0.00 0.00 0.00 62 1016.0
20260505002009 70 156 0.0 0.0 0.00 0.00 0.00 60 1015.9
20260505001506 71 38 1.7 1.7 0.00 0.00 0.00 59 1016.1
20260505001003 71 236 0.9 0.9 0.00 0.00 0.00 58 1015.9
20260505000500 71 152 0.9 0.9 0.00 0.00 0.00 59 1015.8
20260504235957 72 171 0.9 0.9 0.00 0.00 0.00 57 1015.7
20260504235454 72 172 0.9 0.9 0.00 0.00 0.00 57 1015.6
20260504234951 72 133 0.9 1.7 0.00 0.00 0.00 56 1015.1
20260504234448 73 67 4.3 5.2 0.00 0.00 0.00 56 1015.2
20260504233944 73 165 0.0 0.0 0.00 0.00 0.00 55 1015.4
20260504233440 73 35 1.7 1.7 0.00 0.00 0.00 54 1015.3
20260504232937 74 176 0.0 0.0 0.00 0.00 0.00 55 1015.1
20260504232434 74 222 0.9 0.9 0.00 0.00 0.00 53 1014.9
20260504231932 74 137 1.7 1.7 0.00 0.00 0.00 54 1015.0
20260504231427 75 132 1.7 1.7 0.00 0.00 0.00 54 1014.7
20260504230924 75 181 0.0 0.0 0.00 0.00 0.00 53 1014.9
20260504230421 75 226 0.9 0.9 0.00 0.00 0.00 51 1014.8
20260504225920 76 178 0.0 0.0 0.00 0.00 0.00 52 1014.8
20260504225417 76 126 1.7 1.7 0.00 0.00 0.00 50 1015.0
20260504224914 77 130 0.9 0.9 0.00 0.00 0.00 50 1014.7
20260504224410 77 197 0.0 0.0 0.00 0.00 0.00 49 1014.9
20260504223908 78 184 0.9 0.9 0.00 0.00 0.00 48 1014.9
20260504223403 78 200 0.9 0.9 0.00 0.00 0.00 48 1015.1
20260504222859 78 226 1.7 2.6 0.00 0.00 0.00 47 1014.8
20260504222356 78 252 0.9 0.9 0.00 0.00 0.00 47 1015.0
20260504221855 79 206 0.9 1.7 0.00 0.00 0.00 46 1015.1
20260504221351 80 206 0.9 1.7 0.00 0.00 0.00 44 1015.3
20260504220848 80 11 0.9 1.7 0.00 0.00 0.00 45 1015.3
20260504220345 81 185 0.9 0.9 0.00 0.00 0.00 43 1015.1
20260504215842 80 247 0.9 0.9 0.00 0.00 0.00 43 1015.1
20260504215338 81 177 1.7 0.9 0.00 0.00 0.00 43 1015.1
20260504214834 80 262 0.9 0.9 0.00 0.00 0.00 43 1014.9
20260504214332 81 201 0.9 1.7 0.00 0.00 0.00 44 1015.1
20260504213828 79 253 0.9 0.9 0.00 0.00 0.00 44 1014.9
20260504213324 81 213 1.7 1.7 0.00 0.00 0.00 44 1014.9
20260504212822 82 150 3.5 4.3 0.00 0.00 0.00 40 1014.9
20260504212317 82 222 0.9 0.9 0.00 0.00 0.00 42 1014.8
20260504211816 82 248 1.7 1.7 0.00 0.00 0.00 40 1015.0
20260504211311 82 191 0.9 0.9 0.00 0.00 0.00 40 1014.8
20260504210809 82 314 0.9 1.7 0.00 0.00 0.00 40 1015.0
20260504210306 82 191 1.7 1.7 0.00 0.00 0.00 41 1015.0
20260504205803 81 220 0.9 1.7 0.00 0.00 0.00 41 1015.0
20260504205301 82 183 1.7 1.7 0.00 0.00 0.00 40 1015.3
20260504204759 83 165 6.1 6.1 0.00 0.00 0.00 38 1015.2
20260504204257 83 179 2.6 2.6 0.00 0.00 0.00 39 1015.1
20260504203756 84 166 0.9 0.9 0.00 0.00 0.00 38 1015.1
20260504203252 83 298 1.7 1.7 0.00 0.00 0.00 37 1015.1
20260504202747 83 233 4.3 6.1 0.00 0.00 0.00 38 1015.3
20260504202245 84 248 1.7 1.7 0.00 0.00 0.00 36 1015.5
20260504201742 84 212 0.9 0.9 0.00 0.00 0.00 37 1015.1
20260504201239 82 199 1.7 1.7 0.00 0.00 0.00 41 1015.6
20260504200737 80 263 0.9 0.9 0.00 0.00 0.00 42 1015.5
20260504200232 82 195 2.6 2.6 0.00 0.00 0.00 39 1015.4
20260504195729 83 192 0.9 1.7 0.00 0.00 0.00 38 1015.6
20260504195225 82 205 3.5 4.3 0.00 0.00 0.00 38 1015.3
20260504194722 81 155 1.7 1.7 0.00 0.00 0.00 39 1015.5
20260504194218 83 171 0.9 0.9 0.00 0.00 0.00 37 1015.8
20260504193715 81 231 0.9 0.9 0.00 0.00 0.00 39 1015.9
20260504193212 81 249 1.7 1.7 0.00 0.00 0.00 38 1015.8
20260504192711 82 193 0.9 0.9 0.00 0.00 0.00 37 1015.9
20260504192208 83 119 2.6 2.6 0.00 0.00 0.00 34 1015.8
20260504191707 83 105 1.7 1.7 0.00 0.00 0.00 38 1016.0
20260504191203 84 170 0.9 0.9 0.00 0.00 0.00 36 1015.9
20260504190658 83 186 1.7 1.7 0.00 0.00 0.00 34 1016.1
20260504190155 81 246 1.7 1.7 0.00 0.00 0.00 36 1016.0
20260504185652 82 163 0.0 0.0 0.00 0.00 0.00 37 1016.1
20260504185148 83 128 2.6 2.6 0.00 0.00 0.00 34 1016.2
20260504184644 82 202 4.3 7.0 0.00 0.00 0.00 35 1016.3
20260504184139 83 165 0.9 0.9 0.00 0.00 0.00 36 1016.3
20260504183637 83 97 0.9 1.7 0.00 0.00 0.00 38 1016.3
20260504183134 83 173 2.6 2.6 0.00 0.00 0.00 34 1016.5
20260504182632 83 243 0.9 0.9 0.00 0.00 0.00 36 1016.7
20260504182129 84 205 0.9 0.9 0.00 0.00 0.00 34 1016.4
20260504181626 84 239 0.9 0.9 0.00 0.00 0.00 33 1016.6
20260504181124 85 199 0.9 0.9 0.00 0.00 0.00 35 1016.7
20260504180623 84 179 0.9 0.9 0.00 0.00 0.00 35 1016.7
20260504180121 84 212 1.7 1.7 0.00 0.00 0.00 33 1016.8
20260504175618 84 246 0.9 0.9 0.00 0.00 0.00 33 1016.8
20260504175114 84 86 1.7 1.7 0.00 0.00 0.00 34 1016.5
20260504174613 83 62 2.6 2.6 0.00 0.00 0.00 34 1016.9
20260504174109 83 208 2.6 2.6 0.00 0.00 0.00 33 1016.6
20260504173606 83 162 3.5 5.2 0.00 0.00 0.00 33 1016.9
20260504173104 84 205 1.7 1.7 0.00 0.00 0.00 34 1016.9
20260504172600 84 98 1.7 1.7 0.00 0.00 0.00 36 1017.1
20260504172056 82 206 0.9 0.0 0.00 0.00 0.00 35 1017.1
20260504171553 84 262 1.7 1.7 0.00 0.00 0.00 31 1017.1
20260504171050 82 219 0.9 0.9 0.00 0.00 0.00 34 1017.2
20260504170546 82 215 1.7 1.7 0.00 0.00 0.00 34 1017.5
20260504150930 79 157 0.0 0.0 0.00 0.00 0.00 39 1018.2
20260504150427 80 205 0.9 0.9 0.00 0.00 0.00 35 1018.2
20260504140853 78 146 0.9 0.9 0.00 0.00 0.00 45 1018.1
20260504140349 77 153 1.7 1.7 0.00 0.00 0.00 47 1018.1
20260504130818 72 142 0.0 0.0 0.00 0.00 0.00 60 1018.2
20260504130314 72 113 0.0 0.0 0.00 0.00 0.00 62 1018.2
20260504120238 57 178 0.0 0.0 0.00 0.00 0.00 99 1017.8
20260504110705 53 178 0.0 0.0 0.00 0.00 0.00 99 1017.2
20260504110201 53 178 0.0 0.0 0.00 0.00 0.00 99 1017.2
20260504100125 53 178 0.0 0.0 0.00 0.00 0.00 98 1017.1
20260504081518 55 178 0.0 0.0 0.00 0.00 0.00 97 1017.2
20260504081014 55 178 0.0 0.0 0.00 0.00 0.00 97 1017.3
20260504080510 55 178 0.0 0.0 0.00 0.00 0.00 97 1017.0